User: anonymous   Login
Location: Aranbee
(34.0885°N, 118.2342°W)
Time: 23:18:17
(UTC+00:00)
Language:

S-56A Canister/Altair - Orbit

View from above orbital plane
View from above orbital plane
View from above satellite
View from above satellite

Ground track
Ground track

The orbit data is extracted from the following two-line orbital elements,

1 00082U 61004B   21332.58051933 -.00000130  00000-0 -58694-4 0  9998
2 00082  38.8573  39.1068 1174742 117.2173 255.3057 12.26013215872750
Epoch (UTC): 28 November 2021 13:55:56
Eccentricity: 0.1174742
inclination: 38.8573°
perigee height: 633 km
apogee height: 2500 km
right ascension of ascending node: 39.1068°
argument of perigee: 117.2173°
revolutions per day: 12.26013215
mean anomaly at epoch: 255.3057°
orbit number at epoch: 87275

The dashed part of the orbit path shows where the satellite is in the earth's shadow,  

DLR